Location: ?ejeti?ky
(50.4060°N, 14.9016°E)
Time: 08:31:21
(UTC+00:00)

N. Korean satellite - Pass Details

Date: 06 December 2021
Orbit: 446 x 491 km, 97.3° (Epoch: 18 January)

Event Time Altitude Azimuth Distance (km) Brightness Sun altitude
Rises 03:46:29 0° 22° (NNE) 2,469 10.4 -27.4°
Reaches altitude 10° 03:48:43 10° 33° (NNE) 1,587 9.5 -27.0°
Maximum altitude 03:51:44 29° 96° (E) 854 8.4 -26.5°
Drops below altitude 10° 03:54:43 10° 158° (SSE) 1,572 9.4 -26.0°
Sets 03:56:54 0° 170° (S) 2,439 10.3 -25.7°
